ニート彗星

240P/NEAT (2025)

English version
Home page
Updated on November 27, 2024

---------------------------------------------------------------------

・ プロフィール

・ 軌道要素

Epoch 2024 Mar. 31.0 TT = JDT 2460400.5
T 2025 Dec. 19.89344 TT                                 Rudenko
q   2.1230116            (2000.0)            P               Q
n   0.12985931     Peri.  352.00739     +0.38079560     -0.84043017
a   3.8620746      Node    74.91578     +0.86891436     +0.18264449
e   0.4502924      Incl.   23.53689     +0.31620017     +0.51021379
P   7.59
>From 2826 observations 2002 Oct. 5-2024 June 13, mean residual 1".0.
     Nongravitational parameters A1 = +1.15, A2 = +0.0670.

・ 星図

・ 光度変化

        m1 = 7.5 + 5 logΔ + 20.0 log r

---------------------------------------------------------------------

軌道要素はM.P.E.C. 2024-M41に掲載されたものです。
星図はステラナビゲータ Ver.11 (アストロアーツ) で作成したものです。
光度グラフはComet for Windowsで作成したものです。

---------------------------------------------------------------------

Copyright(C) Seiichi Yoshida (comet@aerith.net). All rights reserved.